Location: Chefe Valiua
(16.5342°S, 37.2214°E)
Time: 05:59:10
(UTC+00:00)

Aurora 2 Rocket - Pass Details

Date: 19 January 2021
Orbit: 390 x 1740 km, 25.0° (Epoch: 07 March)

Event Time Altitude Azimuth Distance (km) Brightness Sun altitude
Rises 18:33:32 0° 248° (WSW) 3,498 7.5 -30.9°
Reaches altitude 10° 18:36:44 10° 240° (WSW) 2,307 6.3 -31.6°
Enters shadow 18:40:18 29° 206° (SSW) 1,171 4.4 -32.2°
